Muscle Shoals, AL

6:56 PM CDT on August 25, 2016 (GMT -0500)
Northwest Alabama Regional

Weather History for KMSL - October, 2013

Change the Weather History Date:

Friday, October 4, 2013

  Actual Average Record
Temperature  
Mean Temperature 78 °F 66 °F  
Max Temperature 88 °F 78 °F 99 °F (1908)
Min Temperature 67 °F 54 °F 33 °F (1974)
Degree Days  
Heating Degree Days 0 2  
Month to date heating degree days 0 8  
Since 1 July heating degree days 0 23  
Cooling Degree Days 13 3  
Month to date cooling degree days 41 15  
Year to date cooling degree days 1831 1817  
Growing Degree Days 28 (Base 50)    
Moisture  
Dew Point 65 °F    
Average Humidity 67    
Maximum Humidity 87    
Minimum Humidity 46    
Precipitation  
Precipitation 0.00 in 0.11 in 2.46 in (1932)
Month to date precipitation 0.00 0.43  
Year to date precipitation 45.35 39.86  
Snow  
Snow 0.00 in - - ()
Month to date snowfall 0.0  
Since 1 July snowfall 0.0  
Since 1 September snowfall 0.0  
Snow Depth 0.00 in    
Sea Level Pressure  
Sea Level Pressure 30.07 in    
Wind  
Wind Speed 4 mph (SE)    
Max Wind Speed 12 mph    
Max Gust Speed 15 mph    
Visibility 10 miles    
Events      
T = Trace of Precipitation, MM = Missing Value Source: NWS Daily Summary

Daily Weather History Graph

Daily Weather History Graph

Search for Another Location

Airport or City:

Trip Planner

Search our weather history database for the weather conditions in past years. The results will help you decide how hot, cold, wet, or windy it might be!

Date:

Astronomy

Oct. 04, 2013 Rise Set
Actual Time 6:47 AM CDT 6:29 PM CDT
Civil Twilight 6:22 AM CDT 6:55 PM CDT
Nautical Twilight 5:53 AM CDT 7:24 PM CDT
Astronomical Twilight 5:23 AM CDT 7:53 PM CDT
Moon 6:22 AM CDT (10/4) 6:13 PM CDT (10/4)
Length of Visible Light 12h 32m
Length of Day
11h 42m
Waning Crescent, 0% of the Moon is Illuminated
Oct 4
Waning Crescent
Oct 4
New
Oct 11
First Quarter
Oct 18
Full
Oct 26
Last Quarter

Hourly Weather History & Observations

Time (CDT) Temp. Heat Index Dew Point Humidity Pressure Visibility Wind Dir Wind Speed Gust Speed Precip Events Conditions
12:53 AM 68.0 °F - 63.0 °F 84% 30.06 in 9.0 mi SE 4.6 mph - N/A   Clear
1:53 AM 68.0 °F - 63.0 °F 84% 30.06 in 9.0 mi Calm Calm - N/A   Clear
2:53 AM 68.0 °F - 64.0 °F 87% 30.05 in 9.0 mi ESE 3.5 mph - N/A   Overcast
3:53 AM 69.1 °F - 63.0 °F 81% 30.05 in 10.0 mi ESE 3.5 mph - N/A   Mostly Cloudy
4:53 AM 68.0 °F - 63.0 °F 84% 30.06 in 9.0 mi Calm Calm - N/A   Scattered Clouds
5:53 AM 68.0 °F - 62.1 °F 81% 30.07 in 8.0 mi ESE 4.6 mph - N/A   Scattered Clouds
6:53 AM 68.0 °F - 63.0 °F 84% 30.08 in 9.0 mi East 3.5 mph - N/A   Overcast
7:53 AM 70.0 °F - 63.0 °F 78% 30.10 in 8.0 mi SE 3.5 mph - N/A   Mostly Cloudy
8:53 AM 73.0 °F - 63.0 °F 71% 30.12 in 9.0 mi SE 3.5 mph - N/A   Mostly Cloudy
9:53 AM 78.1 °F - 64.9 °F 64% 30.12 in 10.0 mi South 4.6 mph - N/A   Clear
10:53 AM 82.0 °F 84.1 °F 66.0 °F 58% 30.12 in 10.0 mi South 5.8 mph - N/A   Clear
11:53 AM 84.9 °F 87.1 °F 66.0 °F 53% 30.10 in 10.0 mi SW 8.1 mph - N/A   Partly Cloudy
12:53 PM 84.9 °F 87.6 °F 66.9 °F 55% 30.09 in 10.0 mi Variable 4.6 mph - N/A   Mostly Cloudy
1:53 PM 87.1 °F 89.2 °F 66.0 °F 49% 30.06 in 10.0 mi SSE 6.9 mph - N/A   Mostly Cloudy
2:53 PM 87.1 °F 89.2 °F 66.0 °F 49% 30.04 in 10.0 mi SE 8.1 mph - N/A   Mostly Cloudy
3:53 PM 88.0 °F 89.6 °F 64.9 °F 46% 30.04 in 10.0 mi South 9.2 mph - N/A   Scattered Clouds
4:53 PM 84.9 °F 86.6 °F 64.9 °F 51% 30.04 in 10.0 mi SE 5.8 mph - N/A   Partly Cloudy
5:53 PM 82.9 °F 85.0 °F 66.0 °F 56% 30.04 in 10.0 mi SSE 5.8 mph - N/A   Scattered Clouds
6:53 PM 75.9 °F - 66.0 °F 71% 30.04 in 10.0 mi Calm Calm - N/A   Scattered Clouds
7:53 PM 75.0 °F - 66.9 °F 76% 30.06 in 10.0 mi SE 3.5 mph - N/A   Clear
8:53 PM 73.9 °F - 66.9 °F 79% 30.06 in 10.0 mi Calm Calm - N/A   Clear
9:53 PM 72.0 °F - 66.0 °F 81% 30.07 in 10.0 mi SE 3.5 mph - N/A   Clear
10:53 PM 71.1 °F - 66.0 °F 84% 30.07 in 10.0 mi SE 3.5 mph - N/A   Clear
11:53 PM 72.0 °F - 66.9 °F 84% 30.07 in 10.0 mi SE 4.6 mph - N/A   Partly Cloudy